"datetime","temp","dp","rain_mm","uv","solar","mb","wind_mph","gust_mph","windchill","rh"
"2020-05-02 00:00:00",6.3,4.8,0.0,0.0,0,1004.6,0,1,"",90
"2020-05-02 00:01:00",6.3,4.8,0.6,0.0,0,1004.6,1,1,"",90
"2020-05-02 00:02:00",6.3,4.9,0.6,0.0,0,1004.5,0,1,"",91
"2020-05-02 00:03:00",6.3,4.8,0.0,0.0,0,1004.6,0,1,"",90
"2020-05-02 00:04:00",6.3,4.9,0.0,0.0,0,1004.6,0,1,"",91
"2020-05-02 00:05:00",6.2,4.8,0.0,0.0,0,1004.6,1,2,"",91
"2020-05-02 00:06:00",6.2,4.8,0.0,0.0,0,1004.6,0,1,"",91
"2020-05-02 00:07:00",6.2,4.8,0.0,0.0,0,1004.6,0,1,"",91
"2020-05-02 00:08:00",6.2,4.8,0.0,0.0,0,1004.6,0,1,"",91
"2020-05-02 00:09:00",6.2,4.8,0.0,0.0,0,1004.6,0,1,"",91
"2020-05-02 00:10:00",6.1,4.7,0.0,0.0,0,1004.6,1,1,"",91
"2020-05-02 00:11:00",6.1,4.7,0.0,0.0,0,1004.6,0,1,"",91
"2020-05-02 00:12:00",6.1,4.7,0.0,0.0,0,1004.6,0,1,"",91
"2020-05-02 00:13:00",6.1,4.7,0.0,0.0,0,1004.6,0,1,"",91
"2020-05-02 00:14:00",6.0,4.6,0.0,0.0,0,1004.6,0,1,"",91
"2020-05-02 00:15:00",6.0,4.6,0.0,0.0,0,1004.6,0,1,"",91
"2020-05-02 00:16:00",5.9,4.5,0.0,0.0,0,1004.7,1,1,"",91
"2020-05-02 00:17:00",5.9,4.5,0.0,0.0,0,1004.7,0,1,"",91
"2020-05-02 00:18:00",5.9,4.5,0.0,0.0,0,1004.6,0,1,"",91
"2020-05-02 00:19:00",5.8,4.4,0.0,0.0,0,1004.7,0,1,"",91
"2020-05-02 00:20:00",5.8,4.4,0.0,0.0,0,1004.7,0,1,"",91
"2020-05-02 00:21:00",5.8,4.4,0.0,0.0,0,1004.7,0,1,"",91
"2020-05-02 00:22:00",5.8,4.4,0.0,0.0,0,1004.6,1,1,"",91
"2020-05-02 00:23:00",5.8,4.4,0.0,0.0,0,1004.7,1,1,"",91
"2020-05-02 00:24:00",5.8,4.4,0.0,0.0,0,1004.7,1,1,"",91
"2020-05-02 00:25:00",5.8,4.6,0.0,0.0,0,1004.7,0,1,"",92
"2020-05-02 00:26:00",5.8,4.6,0.0,0.0,0,1004.7,1,1,"",92
"2020-05-02 00:27:00",5.7,4.5,0.0,0.0,0,1004.7,1,1,"",92
"2020-05-02 00:28:00",5.7,4.5,0.0,0.0,0,1004.7,0,1,"",92
"2020-05-02 00:29:00",5.7,4.5,0.0,0.0,0,1004.7,1,1,"",92
"2020-05-02 00:30:00",5.8,4.6,0.0,0.0,0,1004.7,0,1,"",92
"2020-05-02 00:31:00",5.7,4.5,0.0,0.0,0,1004.7,0,1,"",92
"2020-05-02 00:32:00",5.7,4.5,0.0,0.0,0,1004.7,1,1,"",92
"2020-05-02 00:33:00",5.7,4.5,0.0,0.0,0,1004.7,1,2,"",92
"2020-05-02 00:34:00",5.7,4.5,0.0,0.0,0,1004.7,0,1,"",92
"2020-05-02 00:35:00",5.7,4.5,0.0,0.0,0,1004.7,1,1,"",92
"2020-05-02 00:36:00",5.7,4.5,0.0,0.0,0,1004.7,0,1,"",92
"2020-05-02 00:37:00",5.7,4.5,0.0,0.0,0,1004.7,0,0,"",92
"2020-05-02 00:38:00",5.7,4.5,0.0,0.0,0,1004.7,0,1,"",92
"2020-05-02 00:39:00",5.7,4.5,0.0,0.0,0,1004.8,0,1,"",92
"2020-05-02 00:40:00",5.7,4.5,0.0,0.0,0,1004.8,0,1,"",92
"2020-05-02 00:41:00",5.7,4.5,0.0,0.0,0,1004.8,0,1,"",92
"2020-05-02 00:42:00",5.7,4.5,0.0,0.0,0,1004.7,0,1,"",92
"2020-05-02 00:43:00",5.6,4.4,0.0,0.0,0,1004.7,1,1,"",92
"2020-05-02 00:44:00",5.6,4.4,0.0,0.0,0,1004.7,0,1,"",92
"2020-05-02 00:45:00",5.6,4.4,0.0,0.0,0,1004.7,0,1,"",92
"2020-05-02 00:46:00",5.6,4.4,0.0,0.0,0,1004.7,0,1,"",92
"2020-05-02 00:47:00",5.6,4.4,0.0,0.0,0,1004.7,0,1,"",92
"2020-05-02 00:48:00",5.6,4.4,0.0,0.0,0,1004.6,0,1,"",92
"2020-05-02 00:49:00",5.7,4.5,0.0,0.0,0,1004.7,1,1,"",92
"2020-05-02 00:50:00",5.7,4.5,0.0,0.0,0,1004.7,0,0,"",92
"2020-05-02 00:51:00",5.7,4.7,0.0,0.0,0,1004.6,1,1,"",93
"2020-05-02 00:52:00",5.6,4.4,0.0,0.0,0,1004.7,1,1,"",92
"2020-05-02 00:53:00",5.6,4.4,0.0,0.0,0,1004.7,1,2,"",92
"2020-05-02 00:54:00",5.6,4.6,0.0,0.0,0,1004.7,1,1,"",93
"2020-05-02 00:55:00",5.7,4.7,0.0,0.0,0,1004.7,1,1,"",93
"2020-05-02 00:56:00",5.7,4.7,0.0,0.0,0,1004.7,0,1,"",93
"2020-05-02 00:57:00",5.7,4.7,0.0,0.0,0,1004.7,0,1,"",93
"2020-05-02 00:58:00",5.7,4.7,0.0,0.0,0,1004.7,0,1,"",93
"2020-05-02 00:59:00",5.7,4.7,0.0,0.0,0,1004.7,0,1,"",93
"2020-05-02 01:00:00",5.8,4.8,0.0,0.0,0,1004.7,0,1,"",93
"2020-05-02 01:01:00",5.8,4.8,0.0,0.0,0,1004.7,1,1,"",93
"2020-05-02 01:02:00",5.8,4.8,0.0,0.0,0,1004.7,0,1,"",93
"2020-05-02 01:03:00",5.8,4.8,0.0,0.0,0,1004.7,1,1,"",93
"2020-05-02 01:04:00",5.8,4.8,0.0,0.0,0,1004.7,0,1,"",93
"2020-05-02 01:05:00",5.8,4.8,0.0,0.0,0,1004.7,0,1,"",93
"2020-05-02 01:06:00",5.8,4.8,0.0,0.0,0,1004.7,0,1,"",93
"2020-05-02 01:07:00",5.9,4.9,0.0,0.0,0,1004.7,1,2,"",93
"2020-05-02 01:08:00",5.9,4.9,0.0,0.0,0,1004.7,1,2,"",93
"2020-05-02 01:09:00",5.8,4.8,0.0,0.0,0,1004.7,1,2,"",93
"2020-05-02 01:10:00",5.8,4.8,0.0,0.0,0,1004.7,1,2,"",93
"2020-05-02 01:11:00",5.8,4.8,0.0,0.0,0,1004.7,1,2,"",93
"2020-05-02 01:12:00",5.8,4.8,0.0,0.0,0,1004.7,1,3,"",93
"2020-05-02 01:13:00",5.8,4.8,0.0,0.0,0,1004.7,1,2,"",93
"2020-05-02 01:14:00",5.8,4.8,0.0,0.0,0,1004.7,1,2,"",93
"2020-05-02 01:15:00",5.9,4.9,0.0,0.0,0,1004.7,1,2,"",93
"2020-05-02 01:16:00",5.8,4.8,0.0,0.0,0,1004.7,1,2,"",93
"2020-05-02 01:17:00",5.8,4.8,0.0,0.0,0,1004.8,1,2,"",93
"2020-05-02 01:18:00",5.8,4.8,0.0,0.0,0,1004.7,1,2,"",93
"2020-05-02 01:19:00",5.8,4.8,0.0,0.0,0,1004.7,1,2,"",93
"2020-05-02 01:20:00",5.9,4.9,0.0,0.0,0,1004.7,1,3,"",93
"2020-05-02 01:21:00",5.8,4.8,0.0,0.0,0,1004.8,1,2,"",93
"2020-05-02 01:22:00",5.8,4.8,0.0,0.0,0,1004.8,1,2,"",93
"2020-05-02 01:23:00",5.9,4.9,0.0,0.0,0,1004.8,1,2,"",93
"2020-05-02 01:24:00",5.9,4.9,0.0,0.0,0,1004.8,1,2,"",93
"2020-05-02 01:25:00",5.8,4.8,0.0,0.0,0,1004.8,1,2,"",93
"2020-05-02 01:26:00",5.8,4.8,0.0,0.0,0,1004.8,1,2,"",93
"2020-05-02 01:27:00",5.8,4.8,0.0,0.0,0,1004.8,1,2,"",93
"2020-05-02 01:28:00",5.8,4.8,0.0,0.0,0,1004.8,1,2,"",93
"2020-05-02 01:29:00",5.7,4.7,0.0,0.0,0,1004.8,1,2,"",93
"2020-05-02 01:30:00",5.8,4.8,0.0,0.0,0,1004.8,1,2,"",93
"2020-05-02 01:31:00",5.8,4.8,0.0,0.0,0,1004.8,1,2,"",93
"2020-05-02 01:32:00",5.8,4.8,0.0,0.0,0,1004.8,1,2,"",93
"2020-05-02 01:33:00",5.8,4.8,0.0,0.0,0,1004.8,1,2,"",93
"2020-05-02 01:34:00",5.9,4.9,0.0,0.0,0,1004.8,1,2,"",93
"2020-05-02 01:35:00",5.9,4.9,0.0,0.0,0,1004.8,1,2,"",93
"2020-05-02 01:36:00",5.9,4.9,0.0,0.0,0,1004.8,1,2,"",93
"2020-05-02 01:37:00",5.9,4.9,0.0,0.0,0,1004.8,1,2,"",93
"2020-05-02 01:38:00",5.9,4.9,0.0,0.0,0,1004.9,1,2,"",93
"2020-05-02 01:39:00",5.9,4.9,0.0,0.0,0,1004.9,1,2,"",93
"2020-05-02 01:40:00",5.9,4.9,0.0,0.0,0,1004.9,1,2,"",93
"2020-05-02 01:41:00",6.0,5.0,0.0,0.0,0,1004.8,1,1,"",93
"2020-05-02 01:42:00",6.0,5.0,0.0,0.0,0,1004.8,0,2,"",93
"2020-05-02 01:43:00",6.1,5.1,0.0,0.0,0,1004.9,1,2,"",93
"2020-05-02 01:44:00",6.1,5.1,0.0,0.0,0,1004.9,1,2,"",93
"2020-05-02 01:45:00",6.0,5.0,0.0,0.0,0,1004.8,1,2,"",93
"2020-05-02 01:46:00",6.1,5.1,0.0,0.0,0,1004.9,1,2,"",93
"2020-05-02 01:47:00",6.1,5.1,0.0,0.0,0,1004.9,1,2,"",93
"2020-05-02 01:48:00",6.2,5.2,0.0,0.0,0,1004.9,0,1,"",93
"2020-05-02 01:49:00",6.1,5.1,0.0,0.0,0,1004.9,0,1,"",93
"2020-05-02 01:50:00",6.2,5.2,0.0,0.0,0,1005.0,0,1,"",93
"2020-05-02 01:51:00",6.2,5.2,0.0,0.0,0,1005.0,1,2,"",93
"2020-05-02 01:52:00",6.2,5.2,0.0,0.0,0,1005.0,1,2,"",93
"2020-05-02 01:53:00",6.2,5.2,0.0,0.0,0,1005.0,1,2,"",93
"2020-05-02 01:54:00",6.2,5.2,0.0,0.0,0,1005.0,1,1,"",93
"2020-05-02 01:55:00",6.2,5.2,0.0,0.0,0,1005.0,0,1,"",93
"2020-05-02 01:56:00",6.2,5.2,0.0,0.0,0,1005.0,1,1,"",93
"2020-05-02 01:57:00",6.2,5.2,0.0,0.0,0,1005.0,1,1,"",93
"2020-05-02 01:58:00",6.2,5.2,0.0,0.0,0,1005.0,1,2,"",93
"2020-05-02 01:59:00",6.2,5.2,0.0,0.0,0,1005.0,1,2,"",93
"2020-05-02 02:00:00",6.2,5.2,0.0,0.0,0,1005.0,1,2,"",93
"2020-05-02 02:01:00",6.2,5.2,0.0,0.0,0,1005.0,1,2,"",93
"2020-05-02 02:02:00",6.3,5.3,0.0,0.0,0,1005.0,1,2,"",93
"2020-05-02 02:03:00",6.3,5.3,0.0,0.0,0,1005.0,1,2,"",93
"2020-05-02 02:04:00",6.3,5.3,0.0,0.0,0,1005.1,1,2,"",93
"2020-05-02 02:05:00",6.3,5.3,0.0,0.0,0,1005.1,0,1,"",93
"2020-05-02 02:06:00",6.4,5.4,0.0,0.0,0,1005.1,0,1,"",93
"2020-05-02 02:07:00",6.4,5.4,0.0,0.0,0,1005.1,1,2,"",93
"2020-05-02 02:08:00",6.4,5.4,0.0,0.0,0,1005.1,1,2,"",93
"2020-05-02 02:09:00",6.5,5.4,0.0,0.0,0,1005.1,1,3,"",93
"2020-05-02 02:10:00",6.6,5.5,0.0,0.0,0,1005.0,1,2,"",93
"2020-05-02 02:11:00",6.6,5.5,0.0,0.0,0,1005.0,2,3,"",93
"2020-05-02 02:12:00",6.6,5.5,0.0,0.0,0,1005.0,1,2,"",93
"2020-05-02 02:13:00",6.6,5.5,0.0,0.0,0,1005.0,1,2,"",93
"2020-05-02 02:14:00",6.7,5.6,0.0,0.0,0,1005.0,0,1,"",93
"2020-05-02 02:15:00",6.7,5.6,0.0,0.0,0,1005.0,1,2,"",93
"2020-05-02 02:16:00",6.7,5.6,0.0,0.0,0,1005.0,1,2,"",93
"2020-05-02 02:17:00",6.7,5.6,0.0,0.0,0,1005.0,1,2,"",93
"2020-05-02 02:18:00",6.8,5.7,0.0,0.0,0,1005.0,0,2,"",93
"2020-05-02 02:19:00",6.8,5.7,0.0,0.0,0,1005.0,1,1,"",93
"2020-05-02 02:20:00",6.8,5.7,0.0,0.0,0,1005.0,0,1,"",93
"2020-05-02 02:21:00",6.9,5.8,0.0,0.0,0,1005.1,1,2,"",93
"2020-05-02 02:22:00",6.9,5.8,0.0,0.0,0,1005.1,2,2,"",93
"2020-05-02 02:23:00",6.9,5.8,0.0,0.0,0,1005.1,1,2,"",93
"2020-05-02 02:24:00",6.9,5.8,0.0,0.0,0,1005.1,3,6,5.0,93
"2020-05-02 02:25:00",6.9,5.8,0.0,0.0,0,1005.1,2,2,"",93
"2020-05-02 02:26:00",6.9,5.8,0.0,0.0,0,1005.2,2,3,"",93
"2020-05-02 02:27:00",6.9,5.8,0.0,0.0,0,1005.1,1,2,"",93
"2020-05-02 02:28:00",7.0,5.8,0.0,0.0,0,1005.1,1,2,"",92
"2020-05-02 02:29:00",7.0,5.8,0.0,0.0,0,1005.1,1,1,"",92
"2020-05-02 02:30:00",7.1,5.9,0.0,0.0,0,1005.1,1,1,"",92
"2020-05-02 02:31:00",7.1,5.9,0.0,0.0,0,1005.1,1,4,6.0,92
"2020-05-02 02:32:00",7.1,6.0,0.0,0.0,0,1005.2,1,3,"",93
"2020-05-02 02:33:00",7.1,5.9,0.0,0.0,0,1005.2,1,2,"",92
"2020-05-02 02:34:00",7.2,6.0,0.0,0.0,0,1005.2,0,1,"",92
"2020-05-02 02:35:00",7.2,6.0,0.0,0.0,0,1005.2,1,2,"",92
"2020-05-02 02:36:00",7.2,6.0,0.0,0.0,0,1005.2,1,2,"",92
"2020-05-02 02:37:00",7.2,6.0,0.0,0.0,0,1005.2,1,2,"",92
"2020-05-02 02:38:00",7.2,6.0,0.0,0.0,0,1005.2,1,2,"",92
"2020-05-02 02:39:00",7.2,6.0,0.0,0.0,0,1005.2,1,2,"",92
"2020-05-02 02:40:00",7.2,6.0,0.0,0.0,0,1005.2,2,3,"",92
"2020-05-02 02:41:00",7.2,6.0,0.0,0.0,0,1005.2,2,4,6.1,92
"2020-05-02 02:42:00",7.3,6.1,0.0,0.0,0,1005.2,1,2,"",92
"2020-05-02 02:43:00",7.3,6.1,0.0,0.0,0,1005.2,1,2,"",92
"2020-05-02 02:44:00",7.3,6.1,0.0,0.0,0,1005.2,2,3,"",92
"2020-05-02 02:45:00",7.3,6.1,0.0,0.0,0,1005.3,1,3,"",92
"2020-05-02 02:46:00",7.3,6.1,0.0,0.0,0,1005.2,1,2,"",92
"2020-05-02 02:47:00",7.3,6.1,0.0,0.0,0,1005.2,0,1,"",92
"2020-05-02 02:48:00",7.3,6.1,0.0,0.0,0,1005.2,1,2,"",92
"2020-05-02 02:49:00",7.3,6.1,0.0,0.0,0,1005.2,2,4,6.2,92
"2020-05-02 02:50:00",7.3,6.1,0.0,0.0,0,1005.3,3,6,5.5,92
"2020-05-02 02:51:00",7.3,6.1,0.0,0.0,0,1005.2,2,4,6.2,92
"2020-05-02 02:52:00",7.3,6.1,0.0,0.0,0,1005.3,1,2,"",92
"2020-05-02 02:53:00",7.4,6.2,0.0,0.0,0,1005.3,1,2,"",92
"2020-05-02 02:54:00",7.4,6.2,0.0,0.0,0,1005.2,2,3,"",92
"2020-05-02 02:55:00",7.4,6.2,0.0,0.0,0,1005.2,1,4,6.4,92
"2020-05-02 02:56:00",7.4,6.2,0.0,0.0,0,1005.1,3,5,5.9,92
"2020-05-02 02:57:00",7.5,6.3,0.0,0.0,0,1005.1,2,2,"",92
"2020-05-02 02:58:00",7.5,6.3,0.0,0.0,0,1005.1,2,4,6.5,92
"2020-05-02 02:59:00",7.6,6.4,0.0,0.0,0,1005.0,2,3,"",92
"2020-05-02 03:00:00",7.6,6.2,0.0,0.0,0,1005.0,2,3,"",91
"2020-05-02 03:01:00",7.6,6.2,0.0,0.0,0,1005.1,1,1,"",91
"2020-05-02 03:02:00",7.6,6.2,0.0,0.0,0,1005.1,1,2,"",91
"2020-05-02 03:03:00",7.6,6.2,0.0,0.0,0,1005.1,2,4,6.6,91
"2020-05-02 03:04:00",7.6,6.2,0.0,0.0,0,1005.0,1,3,"",91
"2020-05-02 03:05:00",7.6,6.2,0.0,0.0,0,1005.0,1,2,"",91
"2020-05-02 03:06:00",7.6,6.2,0.0,0.0,0,1005.1,1,3,"",91
"2020-05-02 03:07:00",7.6,6.2,0.0,0.0,0,1005.1,1,2,"",91
"2020-05-02 03:08:00",7.6,6.2,0.2,0.0,0,1005.1,1,2,"",91
"2020-05-02 03:09:00",7.6,6.2,0.2,0.0,0,1005.0,1,2,"",91
"2020-05-02 03:10:00",7.6,6.2,0.2,0.0,0,1005.1,1,2,"",91
"2020-05-02 03:11:00",7.6,6.2,0.2,0.0,0,1005.1,0,1,"",91
"2020-05-02 03:12:00",7.6,6.2,0.2,0.0,0,1005.1,0,1,"",91
"2020-05-02 03:13:00",7.6,6.2,0.2,0.0,0,1005.1,1,2,"",91
"2020-05-02 03:14:00",7.5,6.3,0.2,0.0,0,1005.2,1,2,"",92
"2020-05-02 03:15:00",7.5,6.3,0.2,0.0,0,1005.2,1,2,"",92
"2020-05-02 03:16:00",7.5,6.3,0.2,0.0,0,1005.2,2,2,"",92
"2020-05-02 03:17:00",7.4,6.2,0.2,0.0,0,1005.2,1,2,"",92
"2020-05-02 03:18:00",7.4,6.2,0.2,0.0,0,1005.3,1,2,"",92
"2020-05-02 03:19:00",7.4,6.2,0.2,0.0,0,1005.3,1,2,"",92
"2020-05-02 03:20:00",7.4,6.2,0.2,0.0,0,1005.2,1,2,"",92
"2020-05-02 03:21:00",7.3,6.1,0.2,0.0,0,1005.3,1,2,"",92
"2020-05-02 03:22:00",7.3,6.1,0.2,0.0,0,1005.3,0,1,"",92
"2020-05-02 03:23:00",7.3,6.1,0.2,0.0,0,1005.3,1,2,"",92
"2020-05-02 03:24:00",7.2,6.0,0.2,0.0,0,1005.3,1,3,"",92
"2020-05-02 03:25:00",7.2,6.0,0.2,0.0,0,1005.3,1,2,"",92
"2020-05-02 03:26:00",7.1,5.9,0.2,0.0,0,1005.3,1,2,"",92
"2020-05-02 03:27:00",7.1,5.9,0.2,0.0,0,1005.3,1,2,"",92
"2020-05-02 03:28:00",7.0,5.8,0.2,0.0,0,1005.3,1,2,"",92
"2020-05-02 03:29:00",7.0,5.8,0.2,0.0,0,1005.3,1,2,"",92
"2020-05-02 03:30:00",6.9,5.7,0.2,0.0,0,1005.3,1,1,"",92
"2020-05-02 03:31:00",6.9,5.7,0.2,0.0,0,1005.3,0,1,"",92
"2020-05-02 03:32:00",6.9,5.7,0.2,0.0,0,1005.4,0,1,"",92
"2020-05-02 03:33:00",6.8,5.6,0.2,0.0,0,1005.4,1,2,"",92
"2020-05-02 03:34:00",6.8,5.6,0.2,0.0,0,1005.4,0,1,"",92
"2020-05-02 03:35:00",6.8,5.6,0.2,0.0,0,1005.4,0,1,"",92
"2020-05-02 03:36:00",6.7,5.5,0.2,0.0,0,1005.5,0,1,"",92
"2020-05-02 03:37:00",6.7,5.5,0.2,0.0,0,1005.5,1,3,"",92
"2020-05-02 03:38:00",6.7,5.5,0.2,0.0,0,1005.4,1,3,"",92
"2020-05-02 03:39:00",6.6,5.4,0.2,0.0,0,1005.5,1,2,"",92
"2020-05-02 03:40:00",6.6,5.5,0.2,0.0,0,1005.5,0,1,"",93
"2020-05-02 03:41:00",6.6,5.5,0.2,0.0,0,1005.5,0,1,"",93
"2020-05-02 03:42:00",6.6,5.5,0.2,0.0,0,1005.5,0,1,"",93
"2020-05-02 03:43:00",6.6,5.5,0.2,0.0,0,1005.6,0,0,"",93
"2020-05-02 03:44:00",6.6,5.5,0.2,0.0,0,1005.5,0,1,"",93
"2020-05-02 03:45:00",6.5,5.4,0.2,0.0,0,1005.6,0,1,"",93
"2020-05-02 03:46:00",6.5,5.4,0.2,0.0,0,1005.6,1,1,"",93
"2020-05-02 03:47:00",6.4,5.4,0.2,0.0,0,1005.6,1,1,"",93
"2020-05-02 03:48:00",6.4,5.4,0.2,0.0,0,1005.6,0,1,"",93
"2020-05-02 03:49:00",6.3,5.3,0.2,0.0,0,1005.7,0,1,"",93
"2020-05-02 03:50:00",6.3,5.3,0.2,0.0,0,1005.6,0,2,"",93
"2020-05-02 03:51:00",6.2,5.2,0.2,0.0,0,1005.7,1,2,"",93
"2020-05-02 03:52:00",6.2,5.2,0.2,0.0,0,1005.6,1,1,"",93
"2020-05-02 03:53:00",6.2,5.2,0.2,0.0,0,1005.6,0,1,"",93
"2020-05-02 03:54:00",6.1,5.1,0.2,0.0,0,1005.7,0,1,"",93
"2020-05-02 03:55:00",6.1,5.1,0.2,0.0,0,1005.7,0,0,"",93
"2020-05-02 03:56:00",6.1,5.1,0.2,0.0,0,1005.7,0,1,"",93
"2020-05-02 03:57:00",6.1,5.1,0.2,0.0,0,1005.7,0,1,"",93
"2020-05-02 03:58:00",5.9,4.9,0.2,0.0,0,1005.8,1,1,"",93
"2020-05-02 03:59:00",5.9,4.9,0.2,0.0,0,1005.7,0,1,"",93
"2020-05-02 04:00:00",5.9,4.9,0.2,0.0,0,1005.8,1,2,"",93
"2020-05-02 04:01:00",5.9,4.9,0.2,0.0,0,1005.8,0,1,"",93
"2020-05-02 04:02:00",5.9,4.9,0.2,0.0,0,1005.7,0,1,"",93
"2020-05-02 04:03:00",5.9,4.9,0.2,0.0,0,1005.8,0,1,"",93
"2020-05-02 04:04:00",5.8,4.8,0.2,0.0,0,1005.8,1,2,"",93
"2020-05-02 04:05:00",5.7,4.7,0.2,0.0,0,1005.8,1,2,"",93
"2020-05-02 04:06:00",5.7,4.7,0.2,0.0,0,1005.8,1,2,"",93
"2020-05-02 04:07:00",5.6,4.6,0.2,0.0,0,1005.8,1,2,"",93
"2020-05-02 04:08:00",5.7,4.7,0.2,0.0,0,1005.8,1,2,"",93
"2020-05-02 04:09:00",5.6,4.6,0.2,0.0,0,1005.8,0,1,"",93
"2020-05-02 04:10:00",5.6,4.6,0.2,0.0,0,1005.8,0,1,"",93
"2020-05-02 04:11:00",5.6,4.7,0.2,0.0,0,1005.8,0,1,"",94
"2020-05-02 04:12:00",5.7,4.8,0.2,0.0,0,1005.8,0,1,"",94
"2020-05-02 04:13:00",5.7,4.8,0.2,0.0,0,1005.8,0,1,"",94
"2020-05-02 04:14:00",5.6,4.7,0.2,0.0,0,1005.8,1,3,"",94
"2020-05-02 04:15:00",5.6,4.7,0.2,0.0,0,1005.8,1,2,"",94
"2020-05-02 04:16:00",5.6,4.7,0.2,0.0,0,1005.9,1,1,"",94
"2020-05-02 04:17:00",5.6,4.7,0.2,0.0,0,1005.8,1,2,"",94
"2020-05-02 04:18:00",5.6,4.7,0.2,0.0,0,1005.8,0,1,"",94
"2020-05-02 04:19:00",5.6,4.7,0.2,0.0,0,1005.9,0,1,"",94
"2020-05-02 04:20:00",5.5,4.5,0.2,0.0,0,1005.9,1,2,"",93
"2020-05-02 04:21:00",5.4,4.4,0.2,0.0,0,1005.9,2,3,"",93
"2020-05-02 04:22:00",5.3,4.3,0.2,0.0,0,1005.8,1,2,"",93
"2020-05-02 04:23:00",5.3,4.3,0.2,0.0,0,1006.0,0,1,"",93
"2020-05-02 04:24:00",5.3,4.4,0.2,0.0,0,1006.0,0,1,"",94
"2020-05-02 04:25:00",5.3,4.4,0.2,0.0,0,1006.0,1,2,"",94
"2020-05-02 04:26:00",5.4,4.5,0.2,0.0,0,1006.0,0,1,"",94
"2020-05-02 04:27:00",5.4,4.5,0.2,0.0,0,1006.0,0,1,"",94
"2020-05-02 04:28:00",5.4,4.5,0.2,0.0,0,1006.0,1,1,"",94
"2020-05-02 04:29:00",5.4,4.5,0.2,0.0,0,1006.0,1,2,"",94
"2020-05-02 04:30:00",5.4,4.5,0.2,0.0,0,1006.0,1,1,"",94
"2020-05-02 04:31:00",5.3,4.4,0.2,0.0,0,1006.0,1,1,"",94
"2020-05-02 04:32:00",5.3,4.4,0.2,0.0,0,1006.0,1,2,"",94
"2020-05-02 04:33:00",5.3,4.4,0.2,0.0,0,1006.1,1,2,"",94
"2020-05-02 04:34:00",5.3,4.4,0.2,0.0,0,1006.0,1,2,"",94
"2020-05-02 04:35:00",5.3,4.4,0.2,0.0,0,1006.0,1,3,"",94
"2020-05-02 04:36:00",5.3,4.4,0.2,0.0,0,1006.0,1,2,"",94
"2020-05-02 04:37:00",5.2,4.3,0.2,0.0,0,1006.0,1,1,"",94
"2020-05-02 04:38:00",5.3,4.4,0.2,0.0,0,1006.0,0,1,"",94
"2020-05-02 04:39:00",5.3,4.4,0.2,0.0,0,1006.1,1,2,"",94
"2020-05-02 04:40:00",5.3,4.4,0.2,0.0,0,1006.1,1,5,3.5,94
"2020-05-02 04:41:00",5.2,4.3,0.2,0.0,0,1006.1,0,1,"",94
"2020-05-02 04:42:00",5.2,4.3,0.2,0.0,0,1006.1,1,2,"",94
"2020-05-02 04:43:00",5.2,4.3,0.2,0.0,0,1006.1,0,2,"",94
"2020-05-02 04:44:00",5.2,4.3,0.2,0.0,0,1006.1,0,1,"",94
"2020-05-02 04:45:00",5.2,4.3,0.2,0.0,0,1006.2,0,1,"",94
"2020-05-02 04:46:00",5.3,4.4,0.2,0.0,0,1006.2,0,1,"",94
"2020-05-02 04:47:00",5.3,4.4,0.2,0.0,0,1006.2,0,1,"",94
"2020-05-02 04:48:00",5.3,4.4,0.2,0.0,0,1006.2,1,2,"",94
"2020-05-02 04:49:00",5.3,4.4,0.2,0.0,0,1006.1,1,2,"",94
"2020-05-02 04:50:00",5.2,4.3,0.2,0.0,0,1006.1,0,1,"",94
"2020-05-02 04:51:00",5.1,4.2,0.2,0.0,0,1006.2,0,2,"",94
"2020-05-02 04:52:00",5.2,4.3,0.2,0.0,0,1006.2,0,1,"",94
"2020-05-02 04:53:00",5.2,4.3,0.2,0.0,0,1006.2,0,1,"",94
"2020-05-02 04:54:00",5.3,4.6,0.2,0.0,0,1006.2,0,1,"",95
"2020-05-02 04:55:00",5.3,4.4,0.2,0.0,0,1006.2,1,2,"",94
"2020-05-02 04:56:00",5.2,4.3,0.2,0.0,0,1006.2,1,2,"",94
"2020-05-02 04:57:00",5.2,4.3,0.2,0.0,0,1006.2,0,2,"",94
"2020-05-02 04:58:00",5.2,4.3,0.2,0.0,0,1006.2,0,2,"",94
"2020-05-02 04:59:00",5.2,4.3,0.2,0.0,0,1006.2,1,1,"",94
"2020-05-02 05:00:00",5.2,4.3,0.2,0.0,0,1006.3,0,1,"",94
"2020-05-02 05:01:00",5.2,4.3,0.2,0.0,0,1006.3,0,1,"",94
"2020-05-02 05:02:00",5.1,4.2,0.2,0.0,0,1006.3,1,2,"",94
"2020-05-02 05:03:00",5.1,4.2,0.2,0.0,0,1006.3,1,2,"",94
"2020-05-02 05:04:00",5.1,4.4,0.2,0.0,0,1006.3,0,1,"",95
"2020-05-02 05:05:00",5.1,4.4,0.2,0.0,0,1006.3,0,1,"",95
"2020-05-02 05:06:00",5.1,4.4,0.2,0.0,0,1006.3,0,0,"",95
"2020-05-02 05:07:00",5.1,4.2,0.2,0.0,0,1006.3,1,1,"",94
"2020-05-02 05:08:00",5.1,4.2,0.2,0.0,0,1006.4,1,2,"",94
"2020-05-02 05:09:00",5.1,4.2,0.2,0.0,0,1006.4,1,2,"",94
"2020-05-02 05:10:00",5.1,4.2,0.2,0.0,0,1006.3,1,1,"",94
"2020-05-02 05:11:00",5.1,4.2,0.2,0.0,0,1006.3,1,1,"",94
"2020-05-02 05:12:00",5.1,4.2,0.2,0.0,0,1006.3,0,1,"",94
"2020-05-02 05:13:00",5.2,4.5,0.2,0.0,0,1006.4,1,2,"",95
"2020-05-02 05:14:00",5.2,4.3,0.2,0.0,0,1006.4,1,1,"",94
"2020-05-02 05:15:00",5.1,4.2,0.2,0.0,0,1006.4,0,2,"",94
"2020-05-02 05:16:00",5.2,4.3,0.2,0.0,0,1006.4,0,1,"",94
"2020-05-02 05:17:00",5.2,4.3,0.2,0.0,0,1006.3,0,1,"",94
"2020-05-02 05:18:00",5.2,4.3,0.2,0.0,0,1006.3,0,1,"",94
"2020-05-02 05:19:00",5.2,4.5,0.2,0.0,0,1006.3,0,1,"",95
"2020-05-02 05:20:00",5.2,4.5,0.2,0.0,0,1006.3,0,1,"",95
"2020-05-02 05:21:00",5.2,4.5,0.2,0.0,0,1006.3,1,2,"",95
"2020-05-02 05:22:00",5.2,4.3,0.2,0.0,0,1006.3,0,1,"",94
"2020-05-02 05:23:00",5.2,4.3,0.2,0.0,0,1006.3,0,1,"",94
"2020-05-02 05:24:00",5.2,4.3,0.2,0.0,0,1006.3,1,1,"",94
"2020-05-02 05:25:00",5.2,4.5,0.2,0.0,0,1006.3,0,0,"",95
"2020-05-02 05:26:00",5.2,4.5,0.2,0.0,0,1006.4,0,1,"",95
"2020-05-02 05:27:00",5.2,4.5,0.2,0.0,0,1006.4,0,2,"",95
"2020-05-02 05:28:00",5.2,4.5,0.2,0.0,0,1006.4,0,1,"",95
"2020-05-02 05:29:00",5.2,4.5,0.2,0.0,0,1006.4,1,2,"",95
"2020-05-02 05:30:00",5.2,4.3,0.2,0.0,0,1006.4,1,2,"",94
"2020-05-02 05:31:00",5.1,4.2,0.2,0.0,0,1006.4,0,1,"",94
"2020-05-02 05:32:00",5.1,4.2,0.2,0.0,0,1006.5,1,1,"",94
"2020-05-02 05:33:00",5.1,4.4,0.2,0.0,0,1006.5,0,1,"",95
"2020-05-02 05:34:00",5.2,4.5,0.2,0.0,0,1006.5,0,1,"",95
"2020-05-02 05:35:00",5.1,4.4,0.2,0.0,0,1006.5,0,1,"",95
"2020-05-02 05:36:00",5.1,4.4,0.2,0.0,0,1006.6,0,1,"",95
"2020-05-02 05:37:00",5.1,4.4,0.2,0.0,0,1006.5,0,1,"",95
"2020-05-02 05:38:00",4.9,4.0,0.2,0.0,0,1006.5,0,1,"",94
"2020-05-02 05:39:00",4.8,3.9,0.2,0.0,0,1006.5,1,1,"",94
"2020-05-02 05:40:00",4.8,3.9,0.2,0.0,0,1006.5,1,2,"",94
"2020-05-02 05:41:00",4.8,4.1,0.2,0.0,0,1006.6,0,1,"",95
"2020-05-02 05:42:00",4.9,4.2,0.2,0.0,0,1006.6,1,2,"",95
"2020-05-02 05:43:00",4.9,4.2,0.2,0.0,0,1006.5,0,1,"",95
"2020-05-02 05:44:00",4.9,4.2,0.2,0.0,0,1006.6,0,1,"",95
"2020-05-02 05:45:00",5.0,4.3,0.2,0.0,5,1006.6,0,1,"",95
"2020-05-02 05:46:00",5.1,4.4,0.2,0.0,5,1006.6,0,1,"",95
"2020-05-02 05:47:00",4.9,4.2,0.2,0.0,5,1006.6,1,2,"",95
"2020-05-02 05:48:00",4.9,4.2,0.2,0.0,5,1006.6,1,2,"",95
"2020-05-02 05:49:00",4.8,4.1,0.2,0.0,7,1006.6,1,1,"",95
"2020-05-02 05:50:00",4.8,3.9,0.2,0.0,7,1006.6,0,1,"",94
"2020-05-02 05:51:00",4.9,4.2,0.2,0.0,7,1006.6,1,2,"",95
"2020-05-02 05:52:00",4.9,4.2,0.2,0.0,7,1006.6,0,1,"",95
"2020-05-02 05:53:00",4.9,4.2,0.2,0.0,7,1006.7,1,2,"",95
"2020-05-02 05:54:00",4.9,4.2,0.2,0.0,9,1006.7,0,1,"",95
"2020-05-02 05:55:00",4.9,4.2,0.2,0.0,12,1006.8,0,1,"",95
"2020-05-02 05:56:00",4.9,4.2,0.2,0.0,14,1006.8,0,1,"",95
"2020-05-02 05:57:00",4.9,4.2,0.2,0.0,14,1006.8,0,1,"",95
"2020-05-02 05:58:00",4.9,4.2,0.2,0.0,14,1006.8,1,4,3.5,95
"2020-05-02 05:59:00",4.8,4.1,0.2,0.0,16,1006.8,2,5,2.9,95
"2020-05-02 06:00:00",4.8,4.1,0.2,0.0,18,1006.7,1,2,"",95
"2020-05-02 06:01:00",4.8,4.1,0.2,0.0,19,1006.8,1,1,"",95
"2020-05-02 06:02:00",4.9,4.2,0.2,0.0,21,1006.7,0,1,"",95
"2020-05-02 06:03:00",5.0,4.3,0.2,0.0,19,1006.7,1,2,"",95
"2020-05-02 06:04:00",5.1,4.4,0.2,0.0,19,1006.7,0,1,"",95
"2020-05-02 06:05:00",5.1,4.4,0.2,0.0,16,1006.8,0,1,"",95
"2020-05-02 06:06:00",5.1,4.4,0.2,0.0,16,1006.7,0,1,"",95
"2020-05-02 06:07:00",5.1,4.4,0.2,0.0,12,1006.8,1,1,"",95
"2020-05-02 06:08:00",5.2,4.5,0.2,0.0,11,1006.8,1,2,"",95
"2020-05-02 06:09:00",5.2,4.5,0.2,0.0,11,1006.8,0,1,"",95
"2020-05-02 06:10:00",5.2,4.5,0.2,0.0,11,1006.8,0,1,"",95
"2020-05-02 06:11:00",5.2,4.5,0.2,0.0,11,1006.8,0,1,"",95
"2020-05-02 06:12:00",5.2,4.5,0.2,0.0,12,1006.8,1,3,"",95
"2020-05-02 06:13:00",5.2,4.5,0.2,0.0,12,1006.8,0,1,"",95
"2020-05-02 06:14:00",5.2,4.5,0.2,0.0,12,1006.8,0,1,"",95
"2020-05-02 06:15:00",5.2,4.5,0.2,0.0,12,1006.9,1,2,"",95
"2020-05-02 06:16:00",5.2,4.5,0.2,0.0,11,1006.9,1,1,"",95
"2020-05-02 06:17:00",5.2,4.5,0.2,0.0,11,1006.9,0,1,"",95
"2020-05-02 06:18:00",5.2,4.5,0.2,0.0,11,1006.9,1,2,"",95
"2020-05-02 06:19:00",5.1,4.4,0.2,0.0,12,1006.9,0,0,"",95
"2020-05-02 06:20:00",5.1,4.4,0.2,0.0,12,1006.9,1,1,"",95
"2020-05-02 06:21:00",5.2,4.5,0.2,0.0,12,1007.0,0,1,"",95
"2020-05-02 06:22:00",5.2,4.5,0.2,0.0,16,1007.0,0,1,"",95
"2020-05-02 06:23:00",5.2,4.5,0.2,0.0,18,1007.0,0,1,"",95
"2020-05-02 06:24:00",5.2,4.5,0.2,0.0,19,1007.0,0,1,"",95
"2020-05-02 06:25:00",5.2,4.5,0.2,0.0,19,1006.9,0,1,"",95
"2020-05-02 06:26:00",5.1,4.4,0.2,0.0,19,1006.9,1,1,"",95
"2020-05-02 06:27:00",5.1,4.4,0.2,0.0,19,1006.9,0,1,"",95
"2020-05-02 06:28:00",5.1,4.4,0.2,0.0,19,1006.9,0,1,"",95
"2020-05-02 06:29:00",5.1,4.4,0.2,0.0,19,1006.9,1,1,"",95
"2020-05-02 06:30:00",5.2,4.5,0.2,0.0,21,1007.0,1,2,"",95
"2020-05-02 06:31:00",5.1,4.4,0.2,0.0,21,1007.0,1,1,"",95
"2020-05-02 06:32:00",5.2,4.5,0.2,0.0,21,1007.0,1,1,"",95
"2020-05-02 06:33:00",5.2,4.5,0.2,0.0,21,1007.0,1,2,"",95
"2020-05-02 06:34:00",5.2,4.5,0.2,0.0,21,1007.0,1,2,"",95
"2020-05-02 06:35:00",5.2,4.5,0.2,0.0,23,1007.0,0,1,"",95
"2020-05-02 06:36:00",5.2,4.5,0.2,0.0,23,1007.0,0,1,"",95
"2020-05-02 06:37:00",5.2,4.5,0.2,0.0,23,1007.0,0,1,"",95
"2020-05-02 06:38:00",5.2,4.5,0.2,0.0,23,1007.0,0,1,"",95
"2020-05-02 06:39:00",5.2,4.5,0.2,0.0,25,1007.0,0,1,"",95
"2020-05-02 06:40:00",5.2,4.5,0.2,0.0,25,1007.1,1,2,"",95
"2020-05-02 06:41:00",5.2,4.5,0.2,0.0,25,1007.0,1,2,"",95
"2020-05-02 06:42:00",5.2,4.5,0.2,0.0,25,1007.0,0,1,"",95
"2020-05-02 06:43:00",5.3,4.6,0.2,0.0,25,1007.1,1,2,"",95
"2020-05-02 06:44:00",5.3,4.6,0.2,0.0,25,1007.1,1,2,"",95
"2020-05-02 06:45:00",5.3,4.6,0.2,0.0,26,1007.1,1,1,"",95
"2020-05-02 06:46:00",5.3,4.6,0.2,0.0,26,1007.2,0,1,"",95
"2020-05-02 06:47:00",5.3,4.6,0.2,0.0,26,1007.2,0,1,"",95
"2020-05-02 06:48:00",5.4,4.7,0.2,0.0,26,1007.2,0,1,"",95
"2020-05-02 06:49:00",5.4,4.7,0.2,0.0,26,1007.2,1,1,"",95
"2020-05-02 06:50:00",5.4,4.7,0.2,0.0,28,1007.3,0,1,"",95
"2020-05-02 06:51:00",5.4,4.7,0.2,0.0,28,1007.3,0,1,"",95
"2020-05-02 06:52:00",5.4,4.7,0.2,0.0,28,1007.3,1,1,"",95
"2020-05-02 06:53:00",5.4,4.7,0.2,0.0,28,1007.3,1,2,"",95
"2020-05-02 06:54:00",5.4,4.7,0.2,0.0,28,1007.3,1,2,"",95
"2020-05-02 06:55:00",5.4,4.7,0.2,0.0,30,1007.4,1,1,"",95
"2020-05-02 06:56:00",5.5,4.8,0.2,0.0,30,1007.4,0,1,"",95
"2020-05-02 06:57:00",5.6,4.9,0.2,0.0,30,1007.4,0,1,"",95